Weather in Fosilmon

Uzbekistan     40°48′59″N   72°59′14″E
temp.,
°C
wind,
m/s
gust,
m/s
humid.,
%
clouds,
%
prec.,
mm/h
press.,
hPa
HPBL,
m
22 april, thu
thu2223:00+8ese22824 2.3 102120
02:00+7ene228147 0.1 102315
05:00+6ese227911 0.3 102516
08:00+11e12564 0.0 1025794
11:00+15nnw22414 0.0 10251736
14:00+16wnw33330 0.0 10241891
17:00+16nnw22320 0.0 10241637
20:00+11e33480 0.0 102620
23 april, fri
fri2323:00+9e33540 0.0 102628
02:00+8ese33520 0.0 102530
05:00+7ese33470 0.0 102630
08:00+12ese23370 0.0 1025310
11:00+18nne21290 0.0 10231239
14:00+20nw22240 0.0 10211780
17:00+20nnw11240 0.0 10201405
20:00+13e223656 0.0 102214
24 april, sat
sat2423:00+11ese33452 0.0 102134
02:00+9ese33390 0.0 102129
05:00+8ese33385 0.0 102135
08:00+15e24337 0.0 1020269
11:00+20n2123100 0.0 1018917
14:00+22wnw221991 0.0 10171555
17:00+22nw2224100 0.0 1017912
20:00+16se223099 0.0 102014
25 april, sun
sun2523:00+15e3335100 0.0 102127
02:00+13ese33415 0.0 102026
05:00+11ese33425 0.0 102125
08:00+17e233799 0.0 1020239
11:00+24nnw22215 0.0 10191204
14:00+25nw331939 0.0 10171898
17:00+24nnw22240 0.0 10171082
20:00+17e22330 0.0 101913
26 april, mon
mon2623:00+15ese33415 0.0 102030
02:00+13ese3347100 0.0 102026
05:00+13e334580 0.0 102029
08:00+19e2338100 0.0 1019249
11:00+25n2126100 0.0 10171100
14:00+27nnw2120100 0.0 10151816
17:00+27nnw112269 0.0 10141086
20:00+19ese223157 0.0 101514